| time (UTC) | temp F | wind direction | speed MPH | gust MPH | rain 1hr in | rain 24hr in | rain mn in | humidity % | barometer mb |
| 20260508053001 | 50 | 22 | 3.0 | 6.0 | 0.00 | 0.14 | 0.00 | 79 | 1013.6 |
| 20260508051620 | 50 | 63 | 2.0 | 8.0 | 0.00 | 0.14 | 0.00 | 79 | 1013.6 |
| 20260508050001 | 50 | 8 | 3.0 | 6.0 | 0.00 | 0.14 | 0.00 | 78 | 1013.6 |
| 20260508044605 | 50 | 70 | 3.0 | 5.0 | 0.00 | 0.14 | 0.00 | 79 | 1013.6 |
| 20260508044502 | 50 | 60 | 3.0 | 5.0 | 0.00 | 0.14 | 0.00 | 78 | 1013.5 |
| 20260508043100 | 50 | 67 | 3.0 | 5.0 | 0.00 | 0.14 | 0.00 | 79 | 1013.4 |
| 20260508041559 | 50 | 51 | 3.0 | 6.0 | 0.00 | 0.14 | 0.00 | 79 | 1013.2 |
| 20260508040100 | 50 | 23 | 0.0 | 4.0 | 0.00 | 0.14 | 0.00 | 80 | 1013.1 |
| 20260508040001 | 50 | 23 | 1.0 | 4.0 | 0.00 | 0.14 | 0.00 | 80 | 1013.1 |
| 20260508034601 | 50 | 84 | 0.0 | 4.0 | 0.00 | 0.14 | 0.00 | 81 | 1013.0 |
| 20260508033003 | 49 | 24 | 3.0 | 5.0 | 0.00 | 0.14 | 0.00 | 81 | 1013.1 |
| 20260508031605 | 49 | 336 | 0.0 | 6.0 | 0.00 | 0.14 | 0.00 | 81 | 1013.2 |
| 20260508030119 | 49 | 317 | 0.0 | 4.0 | 0.00 | 0.14 | 0.00 | 82 | 1013.1 |
| 20260508030004 | 49 | 4 | 0.0 | 4.0 | 0.00 | 0.14 | 0.00 | 82 | 1013.1 |
| 20260508024604 | 49 | 37 | 1.0 | 3.0 | 0.00 | 0.14 | 0.00 | 82 | 1013.1 |
| 20260508023100 | 49 | 16 | 1.0 | 8.0 | 0.00 | 0.14 | 0.00 | 82 | 1012.9 |
| 20260508021601 | 49 | 30 | 5.0 | 9.0 | 0.00 | 0.14 | 0.00 | 82 | 1012.9 |
| 20260508020109 | 50 | 23 | 2.0 | 5.0 | 0.00 | 0.14 | 0.00 | 81 | 1013.2 |
| 20260508020001 | 50 | 354 | 2.0 | 5.0 | 0.00 | 0.14 | 0.00 | 81 | 1013.1 |
| 20260508014600 | 50 | 19 | 1.0 | 6.0 | 0.00 | 0.14 | 0.00 | 81 | 1013.3 |
| 20260508013100 | 50 | 18 | 1.0 | 6.0 | 0.00 | 0.14 | 0.00 | 81 | 1013.7 |
| 20260508011601 | 50 | 47 | 3.0 | 6.0 | 0.00 | 0.14 | 0.00 | 81 | 1013.8 |
| 20260508010123 | 51 | 59 | 2.0 | 6.0 | 0.00 | 0.14 | 0.00 | 81 | 1013.7 |
| 20260508004559 | 51 | 15 | 1.0 | 3.0 | 0.00 | 0.14 | 0.00 | 81 | 1014.0 |
| 20260508003117 | 51 | 79 | 1.0 | 3.0 | 0.00 | 0.14 | 0.00 | 81 | 1014.2 |
| 20260508001602 | 52 | 353 | 1.0 | 5.0 | 0.00 | 0.14 | 0.00 | 80 | 1014.3 |
| 20260508000059 | 52 | 65 | 1.0 | 4.0 | 0.00 | 0.14 | 0.00 | 81 | 1014.4 |
| 20260507234559 | 52 | 24 | 0.0 | 2.0 | 0.00 | 0.14 | 0.00 | 79 | 1014.5 |
| 20260507233059 | 53 | 30 | 2.0 | 5.0 | 0.00 | 0.14 | 0.00 | 77 | 1014.5 |
| 20260507231558 | 53 | 28 | 0.0 | 3.0 | 0.00 | 0.14 | 0.00 | 75 | 1014.6 |
| 20260507230112 | 53 | 78 | 1.0 | 2.0 | 0.00 | 0.14 | 0.00 | 76 | 1014.9 |
| 20260507230001 | 53 | 88 | 1.0 | 2.0 | 0.00 | 0.14 | 0.00 | 76 | 1014.8 |
| 20260507224501 | 53 | 76 | 1.0 | 3.0 | 0.00 | 0.14 | 0.00 | 76 | 1014.8 |
| 20260507223001 | 53 | 85 | 0.0 | 6.0 | 0.00 | 0.14 | 0.00 | 76 | 1014.7 |
| 20260507221600 | 54 | 96 | 1.0 | 3.0 | 0.00 | 0.14 | 0.00 | 75 | 1014.7 |
| 20260507220101 | 54 | 66 | 0.0 | 3.0 | 0.00 | 0.14 | 0.00 | 74 | 1014.7 |
| 20260507220001 | 54 | 58 | 0.0 | 3.0 | 0.00 | 0.14 | 0.14 | 74 | 1014.7 |
| 20260507214501 | 54 | 88 | 0.0 | 2.0 | 0.00 | 0.14 | 0.14 | 75 | 1014.7 |
| 20260507213144 | 54 | 109 | 0.0 | 4.0 | 0.00 | 0.14 | 0.14 | 73 | 1014.5 |
| 20260507213001 | 54 | 119 | 1.0 | 4.0 | 0.00 | 0.14 | 0.14 | 73 | 1014.5 |
| 20260507211601 | 55 | 107 | 1.0 | 3.0 | 0.00 | 0.14 | 0.14 | 73 | 1014.5 |
| 20260507210003 | 54 | 148 | 0.0 | 2.0 | 0.00 | 0.14 | 0.14 | 72 | 1014.2 |
| 20260507204501 | 55 | 344 | 0.0 | 4.0 | 0.00 | 0.14 | 0.14 | 71 | 1013.9 |
| 20260507203005 | 55 | 58 | 1.0 | 5.0 | 0.00 | 0.14 | 0.14 | 69 | 1013.7 |
| 20260507201502 | 55 | 49 | 1.0 | 4.0 | 0.00 | 0.14 | 0.14 | 69 | 1013.5 |
| 20260507200005 | 56 | 39 | 2.0 | 6.0 | 0.00 | 0.14 | 0.14 | 70 | 1013.3 |
| 20260507194501 | 56 | 60 | 3.0 | 5.0 | 0.00 | 0.14 | 0.14 | 71 | 1013.0 |
| 20260507193101 | 56 | 67 | 2.0 | 5.0 | 0.00 | 0.14 | 0.14 | 70 | 1012.8 |
| 20260507193006 | 56 | 52 | 2.0 | 5.0 | 0.00 | 0.14 | 0.14 | 70 | 1012.9 |
| 20260507191501 | 56 | 10 | 1.0 | 3.0 | 0.00 | 0.14 | 0.14 | 70 | 1012.7 |
| 20260507190006 | 56 | 49 | 1.0 | 7.0 | 0.00 | 0.14 | 0.14 | 68 | 1012.4 |
| 20260507184504 | 57 | 351 | 3.0 | 7.0 | 0.00 | 0.14 | 0.14 | 66 | 1012.3 |
| 20260507183006 | 57 | 333 | 2.0 | 7.0 | 0.00 | 0.14 | 0.14 | 66 | 1012.0 |
| 20260507181502 | 57 | 74 | 1.0 | 3.0 | 0.00 | 0.14 | 0.14 | 65 | 1011.8 |
| 20260507180005 | 57 | 58 | 1.0 | 5.0 | 0.00 | 0.14 | 0.14 | 66 | 1011.9 |
| 20260507174604 | 57 | 41 | 2.0 | 7.0 | 0.00 | 0.14 | 0.14 | 66 | 1011.9 |
| 20260507173102 | 57 | 37 | 2.0 | 8.0 | 0.00 | 0.14 | 0.14 | 65 | 1011.9 |
| 20260507173003 | 57 | 89 | 4.0 | 8.0 | 0.00 | 0.14 | 0.14 | 65 | 1011.9 |
| 20260507171606 | 57 | 13 | 3.0 | 8.0 | 0.00 | 0.14 | 0.14 | 65 | 1012.0 |
| 20260507170002 | 56 | 4 | 4.0 | 11.0 | 0.00 | 0.14 | 0.14 | 68 | 1012.1 |
| 20260507164603 | 56 | 9 | 3.0 | 11.0 | 0.00 | 0.14 | 0.14 | 75 | 1012.0 |
| 20260507163002 | 55 | 17 | 3.0 | 9.0 | 0.00 | 0.14 | 0.14 | 78 | 1011.9 |
| 20260507161611 | 55 | 293 | 1.0 | 5.0 | 0.00 | 0.14 | 0.14 | 77 | 1011.8 |
| 20260507160004 | 54 | 56 | 4.0 | 0.0 | 1.05 | 0.00 | 0.14 | 76 | 1011.3 |
| 20260507154600 | 54 | 19 | 2.0 | 5.0 | 0.02 | 0.14 | 0.14 | 78 | 1011.2 |
| 20260507153001 | 53 | 35 | 4.0 | 9.0 | 0.04 | 0.14 | 0.14 | 79 | 1011.2 |
| 20260507151501 | 54 | 91 | 2.0 | 8.0 | 0.07 | 0.14 | 0.14 | 74 | 1012.1 |
| 20260507150003 | 53 | 121 | 2.0 | 9.0 | 0.07 | 0.13 | 0.13 | 77 | 1012.3 |
| 20260507144501 | 53 | 90 | 1.0 | 8.0 | 0.12 | 0.13 | 0.13 | 80 | 1012.3 |
| 20260507143102 | 53 | 113 | 10.0 | 15.0 | 0.09 | 0.10 | 0.10 | 75 | 1012.1 |
| 20260507141501 | 53 | 109 | 4.0 | 11.0 | 0.06 | 0.07 | 0.07 | 81 | 1012.0 |
| 20260507140002 | 54 | 114 | 3.0 | 12.0 | 0.05 | 0.06 | 0.06 | 80 | 1012.3 |
| 20260507134501 | 55 | 94 | 5.0 | 12.0 | 0.01 | 0.01 | 0.01 | 74 | 1012.7 |
| 20260507133001 | 55 | 142 | 8.0 | 20.0 | 0.01 | 0.01 | 0.01 | 73 | 1012.2 |
| 20260507131502 | 56 | 95 | 6.0 | 18.0 | 0.01 | 0.01 | 0.01 | 73 | 1011.7 |
| 20260507130110 | 57 | 119 | 6.0 | 15.0 | 0.01 | 0.01 | 0.01 | 68 | 1011.7 |
| 20260507124620 | 61 | 137 | 4.0 | 11.0 | 0.00 | 0.00 | 0.00 | 59 | 1011.2 |
| 20260507123109 | 62 | 107 | 1.0 | 6.0 | 0.00 | 0.00 | 0.00 | 57 | 1011.4 |
| 20260507121604 | 63 | 147 | 1.0 | 8.0 | 0.00 | 0.00 | 0.00 | 57 | 1011.5 |
| 20260507114603 | 64 | 155 | 5.0 | 8.0 | 0.00 | 0.00 | 0.00 | 53 | 1011.7 |
| 20260507113059 | 64 | 172 | 3.0 | 7.0 | 0.00 | 0.00 | 0.00 | 54 | 1011.9 |
| 20260507111600 | 64 | 136 | 1.0 | 6.0 | 0.00 | 0.00 | 0.00 | 56 | 1012.2 |
| 20260507110059 | 62 | 107 | 4.0 | 10.0 | 0.00 | 0.00 | 0.00 | 58 | 1012.3 |
| 20260507104559 | 62 | 172 | 2.0 | 7.0 | 0.00 | 0.00 | 0.00 | 59 | 1012.5 |
| 20260507103114 | 60 | 161 | 2.0 | 8.0 | 0.00 | 0.00 | 0.00 | 61 | 1012.7 |
| 20260507101603 | 60 | 131 | 1.0 | 10.0 | 0.00 | 0.00 | 0.00 | 63 | 1012.9 |
| 20260507100113 | 59 | 318 | 3.0 | 10.0 | 0.00 | 0.00 | 0.00 | 63 | 1012.9 |
| 20260507100002 | 59 | 3 | 4.0 | 10.0 | 0.00 | 0.00 | 0.00 | 63 | 1013.0 |
| 20260507094501 | 58 | 124 | 1.0 | 6.0 | 0.00 | 0.00 | 0.00 | 65 | 1013.0 |
| 20260507093102 | 58 | 94 | 4.0 | 8.0 | 0.00 | 0.00 | 0.00 | 65 | 1013.0 |
| 20260507093001 | 58 | 71 | 4.0 | 8.0 | 0.00 | 0.00 | 0.00 | 65 | 1013.0 |
| 20260507091601 | 58 | 316 | 1.0 | 6.0 | 0.00 | 0.00 | 0.00 | 64 | 1013.1 |
| 20260507090001 | 58 | 298 | 2.0 | 7.0 | 0.00 | 0.00 | 0.00 | 64 | 1012.9 |
| 20260507084602 | 57 | 62 | 1.0 | 11.0 | 0.00 | 0.00 | 0.00 | 68 | 1013.0 |
| 20260507083119 | 56 | 20 | 2.0 | 8.0 | 0.00 | 0.00 | 0.00 | 68 | 1013.0 |
| 20260507081605 | 55 | 69 | 2.0 | 6.0 | 0.00 | 0.00 | 0.00 | 70 | 1013.0 |
| 20260507080059 | 55 | 23 | 5.0 | 10.0 | 0.00 | 0.00 | 0.00 | 70 | 1012.9 |
| 20260507074621 | 54 | 18 | 3.0 | 10.0 | 0.00 | 0.00 | 0.00 | 71 | 1012.9 |
| 20260507073104 | 54 | 6 | 3.0 | 6.0 | 0.00 | 0.00 | 0.00 | 71 | 1012.9 |
| 20260507071559 | 54 | 55 | 3.0 | 10.0 | 0.00 | 0.00 | 0.00 | 71 | 1013.0 |
| 20260507070104 | 54 | 324 | 5.0 | 11.0 | 0.00 | 0.00 | 0.00 | 71 | 1012.9 |
| 20260507064602 | 53 | 30 | 3.0 | 9.0 | 0.00 | 0.00 | 0.00 | 71 | 1012.8 |
| 20260507063100 | 54 | 45 | 1.0 | 6.0 | 0.00 | 0.00 | 0.00 | 71 | 1012.6 |
| 20260507061601 | 53 | 29 | 4.0 | 8.0 | 0.00 | 0.00 | 0.00 | 71 | 1012.6 |
| 20260507060100 | 53 | 37 | 2.0 | 8.0 | 0.00 | 0.00 | 0.00 | 71 | 1012.5 |
| 20260507060007 | 53 | 27 | 2.0 | 8.0 | 0.00 | 0.00 | 0.00 | 72 | 1012.5 |
| 20260507054559 | 53 | 49 | 3.0 | 13.0 | 0.00 | 0.00 | 0.00 | 72 | 1012.3 |